Date,TemperatureHighF,TemperatureAvgF,TemperatureLowF,DewpointHighF,DewpointAvgF,DewpointLowF,HumidityHigh,HumidityAvg,HumidityLow,PressureMaxIn,PressureMinIn,WindSpeedMaxMPH,WindSpeedAvgMPH,GustSpeedMaxMPH,PrecipitationSumIn
2013-5-1,60.0,42.9,33.0,40.0,35.6,32.0,96,78,47,30.53,30.42,2,0,7,0.01
2013-5-2,66.0,53.0,39.0,47.0,42.5,37.0,94,69,49,30.52,30.36,4,1,10,0.00
2013-5-3,62.0,59.8,57.0,48.0,46.1,45.0,65,61,59,30.22,30.21,1,0,6,0.00
2013-5-4,76.0,61.0,46.0,57.0,48.4,44.0,94,66,36,30.22,29.98,5,1,12,0.00
2013-5-5,81.0,63.5,48.0,55.0,48.6,44.0,90,61,33,29.98,29.76,5,1,11,0.00
2013-5-6,84.0,65.3,50.0,56.0,50.3,46.0,92,62,34,29.84,29.74,4,1,8,0.00
2013-5-7,70.0,58.9,50.0,57.0,52.5,49.0,96,80,62,29.99,29.81,4,1,10,0.00
2013-5-8,65.0,55.4,49.0,55.0,51.4,48.0,98,87,69,30.13,29.99,2,0,7,0.00
2013-5-9,69.0,56.3,49.0,58.0,52.2,48.0,100,88,58,30.21,30.11,3,0,8,0.00
2013-5-10,77.0,60.8,47.0,59.0,51.9,-99.9,100,79,48,30.19,30.10,4,0,7,0.00
2013-5-11,79.0,63.8,54.0,61.0,52.5,-99.9,90,69,47,30.17,29.98,4,1,8,0.00
2013-5-12,66.0,60.0,57.0,60.0,57.9,56.0,100,93,82,30.09,30.02,4,0,12,0.09
2013-5-13,54.0,51.4,49.0,49.0,45.6,44.0,84,81,77,30.17,30.07,6,2,19,0.35
2013-5-14,62.0,53.4,44.0,47.0,43.6,38.0,95,71,42,30.21,30.10,4,1,10,0.17
2013-5-15,62.0,52.9,45.0,52.0,46.7,41.0,97,81,58,30.11,30.01,3,0,9,0.05
2013-5-16,69.0,54.9,51.0,55.0,35.8,-99.9,100,81,53,30.01,29.85,3,1,11,0.05
2013-5-17,60.0,54.0,51.0,54.0,48.0,-99.9,100,89,71,30.04,29.94,2,0,9,0.07
2013-5-18,59.0,53.4,49.0,51.0,48.9,47.0,96,85,73,30.26,30.04,2,0,9,0.01
2013-5-19,63.0,55.4,51.0,53.0,50.4,48.0,94,84,67,30.39,30.25,3,1,7,0.00
2013-5-20,66.0,54.7,47.0,55.0,49.3,46.0,98,84,55,30.33,29.88,3,1,9,0.00
2013-5-21,57.0,49.6,44.0,51.0,46.2,42.0,100,89,67,29.88,29.76,4,1,17,0.31
2013-5-22,51.0,45.4,41.0,49.0,44.5,41.0,100,97,87,29.90,29.84,2,0,7,0.23
2013-5-23,54.0,50.2,45.0,48.0,46.7,45.0,100,88,72,30.00,29.95,3,1,16,0.12
2013-5-24,61.0,51.9,45.0,51.0,47.5,44.0,99,86,59,30.04,29.95,4,0,11,0.01
2013-5-25,63.0,54.2,48.0,50.0,48.2,47.0,99,82,59,30.03,29.96,4,1,11,0.01
2013-5-26,63.0,55.1,50.0,55.0,51.4,48.0,98,88,70,29.98,29.93,5,0,10,0.05
2013-5-27,60.0,54.6,48.0,57.0,53.1,47.0,100,95,87,29.96,29.70,1,0,7,0.24
2013-5-28,60.0,54.2,50.0,55.0,52.0,50.0,100,92,76,29.88,29.76,4,0,11,0.18
2013-5-29,59.0,53.0,48.0,54.0,49.9,47.0,100,90,75,29.96,29.68,6,1,20,0.14
2013-5-30,60.0,53.0,46.0,51.0,47.7,45.0,95,83,65,30.23,29.96,6,1,14,0.01
2013-5-31,65.0,54.3,49.0,51.0,48.0,46.0,97,81,52,30.33,30.23,3,1,7,0.01